This demonstration page uses our WeatherBlox Daily Observations layout. Learn more.

Left ArrowRight Arrow

34.74481, -87.66753

Hourly Observations for December 31, 2019

Temp ( °F °C ) Dew Point ( °F °C ) Humidity (%) Winds ( mph kmh ) Pressure ( in mb ) Visibility ( mi km ) Precip ( " mm )
12:53 am 00:53 Clear 43 6.1 31 -0.6 63 63 W 13 20 29.98 1015 10 16 0.00 0.00
1:53 am 01:53 Clear 42 5.6 31 -0.6 65 65 W 12 19 29.99 1016 10 16 0.00 0.00
2:53 am 02:53 Clear 41 5 31 -0.6 67 67 W 10 17 30.00 1016 10 16 0.00 0.00
3:53 am 03:53 Clear 41 5 30 -1.1 65 65 W 15 24 30.01 1016 10 16 0.00 0.00
4:53 am 04:53 Clear 39 3.9 30 -1.1 70 70 W 12 19 30.02 1017 10 16 0.00 0.00
5:53 am 05:53 Clear 36 2.2 29 -1.7 76 76 W 6 9 30.04 1017 10 16 0.00 0.00
6:53 am 06:53 Clear 37 2.8 29 -1.7 73 73 W 7 11 30.06 1018 10 16 0.00 0.00
7:53 am 07:53 Sunny 41 5 29 -1.7 62 62 WNW 14 22 30.08 1019 10 16 0.00 0.00
8:53 am 08:53 Sunny 43 6.1 29 -1.7 58 58 WNW 18 30 30.10 1019 10 16 0.00 0.00
9:53 am 09:53 Sunny 44 6.7 28 -2.2 53 53 WNW 22 35 30.12 1020 10 16 0.00 0.00
10:53 am 10:53 Sunny 46 7.8 30 -1.1 54 54 W 15 24 30.11 1020 10 16 0.00 0.00
11:53 am 11:53 Sunny 49 9.4 29 -1.7 46 46 WNW 15 24 30.08 1019 10 16 0.00 0.00
12:53 pm 12:53 Sunny 51 10.6 27 -2.8 39 39 W 15 24 30.06 1018 10 16 0.00 0.00
1:53 pm 13:53 Sunny 52 11.1 24 -4.4 34 34 W 17 28 30.05 1018 10 16 0.00 0.00
2:53 pm 14:53 Sunny 53 11.7 26 -3.3 35 35 WNW 14 22 30.04 1017 10 16 0.00 0.00
3:53 pm 15:53 Sunny 52 11.1 24 -4.4 34 34 W 14 22 30.03 1017 10 16 0.00 0.00
4:53 pm 16:53 Clear 47 8.3 27 -2.8 46 46 W 10 17 30.04 1017 10 16 0.00 0.00
5:53 pm 17:53 Clear 45 7.2 27 -2.8 49 49 WSW 8 13 30.04 1017 10 16 0.00 0.00
6:53 pm 18:53 Clear 42 5.6 27 -2.8 55 55 WSW 6 9 30.04 1017 10 16 0.00 0.00
7:53 pm 19:53 Clear 41 5 26 -3.3 55 55 W 7 11 30.06 1018 10 16 0.00 0.00
8:53 pm 20:53 Clear 41 5 25 -3.9 53 53 W 6 9 30.08 1019 10 16 0.00 0.00
9:53 pm 21:53 Clear 39 3.9 26 -3.3 60 60 Calm 30.08 1019 10 16 0.00 0.00
10:53 pm 22:53 Clear 40 4.4 27 -2.8 60 60 W 5 7 30.09 1019 10 16 0.00 0.00
11:53 pm 23:53 Clear 38 3.3 27 -2.8 65 65 Calm 30.08 1019 10 16 0.00 0.00

Powered by AerisWeather